Location: Newark
(27.9675°N, 86.8869°E)
Time: 05:13:29
(UTC+00:00)

Courier 1B Rocket - Pass Details

Date: 22 October 2019
Orbit: 920 x 1202 km, 28.2° (Epoch: 10 November)

Event Time Altitude Azimuth Distance (km) Brightness Sun altitude
Rises 18:45:25 0° 229° (SW) 3,717 - -69.7°
Reaches altitude 10° 18:48:22 10° 221° (SW) 2,726 - -69.3°
Maximum altitude 18:54:17 36° 157° (SSE) 1,440 - -68.5°
Drops below altitude 10° 18:59:58 10° 92° (E) 2,617 - -67.6°
Sets 19:02:43 0° 84° (E) 3,550 - -67.2°
